Weather History for Luverne, MN

Change the Weather History Date:

Sunday, October 20, 2013

  Actual Average (KFSD) Record (KFSD)
Temperature  
Mean Temperature 45 °F 46 °F  
Max Temperature 55 °F 58 °F 85 °F (1947)
Min Temperature 35 °F 35 °F 13 °F (1917)
Degree Days  
Heating Degree Days 20 19  
Month to date heating degree days 300  
Since 1 July heating degree days 504  
Cooling Degree Days 0 0  
Month to date cooling degree days 0  
Year to date cooling degree days 685  
Moisture  
Dew Point 34 °F    
Average Humidity 71    
Maximum Humidity 87    
Minimum Humidity 51    
Precipitation  
Precipitation 0.00 in 0.07 in 1.05 in (1905)
Month to date precipitation 1.60  
Year to date precipitation 23.76  
Snow  
Snow 0.00 in 0.10 in 5.00 in (1905)
Month to date snowfall 0.5  
Since 1 July snowfall 0.5  
Since 1 September snowfall 0.5  
Snow Depth -    
Sea Level Pressure  
Sea Level Pressure 29.77 in    
Wind  
Wind Speed 9 mph (WNW)    
Max Wind Speed 25 mph    
Max Gust Speed 37 mph    
Visibility 10 miles    
Events Rain    
T = Trace of Precipitation, MM = Missing Value Source: NWS Daily Summary

Daily Weather History Graph

Daily Weather History Graph

Search for Another Location

Airport:

Trip Planner

Search our weather history database for the weather conditions in past years. The results will help you decide how hot, cold, wet, or windy it might be!

Date:

Astronomy

Oct. 20, 2013 Rise Set
Actual Time 7:45 AM CDT 6:32 PM CDT
Civil Twilight 7:16 AM CDT 7:02 PM CDT
Nautical Twilight 6:43 AM CDT 7:35 PM CDT
Astronomical Twilight 6:09 AM CDT 8:08 PM CDT
Moon 7:38 PM CDT (10/20) 9:27 AM CDT (10/20)
Length of Visible Light 11h 45m
Length of Day
10h 47m
Full, 97% of the Moon is Illuminated
Oct 20
Full
Oct 26
Last Quarter
Nov 3
New
Nov 9
First Quarter
Nov 17
Full

Hourly Weather History & Observations

Time (CDT) Temp. Windchill Dew Point Humidity Pressure Visibility Wind Dir Wind Speed Gust Speed Precip Events Conditions
12:13 AM 39.2 °F 35.9 °F 30.2 °F 70% 29.79 in 10.0 mi SE 4.6 mph - N/A   Overcast
12:33 AM 39.2 °F 35.0 °F 30.2 °F 70% 29.78 in 10.0 mi SSE 5.8 mph - N/A   Overcast
12:53 AM 39.2 °F 35.9 °F 30.2 °F 70% 29.78 in 10.0 mi SSE 4.6 mph - N/A   Overcast
1:12 AM 39.2 °F 35.0 °F 30.2 °F 70% 29.77 in 10.0 mi SSE 5.8 mph - N/A   Overcast
1:33 AM 39.2 °F 35.0 °F 30.2 °F 70% 29.76 in 10.0 mi SSE 5.8 mph - N/A   Overcast
1:53 AM 39.2 °F 35.0 °F 30.2 °F 70% 29.76 in 10.0 mi SSE 5.8 mph - N/A   Overcast
2:12 AM 41.0 °F 37.1 °F 30.2 °F 65% 29.75 in 10.0 mi SSE 5.8 mph - N/A   Overcast
2:33 AM 41.0 °F 38.0 °F 30.2 °F 65% 29.74 in 10.0 mi SE 4.6 mph - N/A   Overcast
2:53 AM 41.0 °F 39.0 °F 32.0 °F 70% 29.74 in 10.0 mi ESE 3.5 mph - N/A   Overcast
3:12 AM 41.0 °F 38.0 °F 32.0 °F 70% 29.73 in 10.0 mi ESE 4.6 mph - N/A   Overcast
3:33 AM 41.0 °F - 32.0 °F 70% 29.72 in 10.0 mi Calm Calm - N/A   Overcast
3:53 AM 41.0 °F 38.0 °F 32.0 °F 70% 29.70 in 10.0 mi ESE 4.6 mph - N/A   Overcast
4:13 AM 41.0 °F 37.1 °F 32.0 °F 70% 29.69 in 10.0 mi ESE 5.8 mph - N/A   Overcast
4:33 AM 41.0 °F 37.1 °F 32.0 °F 70% 29.68 in 10.0 mi SE 5.8 mph - N/A   Overcast
4:53 AM 41.0 °F 38.0 °F 32.0 °F 70% 29.68 in 10.0 mi SSE 4.6 mph - N/A   Overcast
5:13 AM 41.0 °F 38.0 °F 32.0 °F 70% 29.67 in 10.0 mi SSE 4.6 mph - N/A   Overcast
5:33 AM 41.0 °F 39.0 °F 32.0 °F 70% 29.67 in 10.0 mi SSE 3.5 mph - N/A   Overcast
5:53 AM 41.0 °F 38.0 °F 32.0 °F 70% 29.66 in 10.0 mi SSE 4.6 mph - N/A   Overcast
6:13 AM 41.0 °F 37.1 °F 32.0 °F 70% 29.65 in 10.0 mi South 5.8 mph - N/A   Overcast
6:33 AM 39.2 °F 35.9 °F 32.0 °F 75% 29.66 in 10.0 mi South 4.6 mph - N/A   Mostly Cloudy
6:53 AM 39.2 °F 35.9 °F 32.0 °F 75% 29.65 in 10.0 mi South 4.6 mph - N/A   Mostly Cloudy
7:12 AM 39.2 °F 37.0 °F 32.0 °F 75% 29.65 in 10.0 mi South 3.5 mph - N/A   Overcast
7:33 AM 39.2 °F 37.0 °F 32.0 °F 75% 29.65 in 10.0 mi South 3.5 mph - N/A   Overcast
7:52 AM 39.2 °F 35.9 °F 33.8 °F 81% 29.65 in 10.0 mi South 4.6 mph - N/A   Overcast
8:13 AM 39.2 °F 35.0 °F 33.8 °F 81% 29.65 in 10.0 mi South 5.8 mph - N/A   Overcast
8:33 AM 41.0 °F 39.0 °F 33.8 °F 76% 29.65 in 10.0 mi SW 3.5 mph - N/A   Overcast
8:52 AM 41.0 °F - 33.8 °F 76% 29.66 in 10.0 mi Calm Calm - N/A   Mostly Cloudy
9:13 AM 42.8 °F 38.0 °F 35.6 °F 76% 29.66 in 10.0 mi West 8.1 mph - N/A   Scattered Clouds
9:33 AM 44.6 °F 38.8 °F 35.6 °F 71% 29.67 in 10.0 mi West 11.5 mph - N/A   Clear
9:52 AM 46.4 °F 40.4 °F 37.4 °F 71% 29.67 in 10.0 mi West 13.8 mph - N/A   Clear
10:13 AM 50.0 °F - 39.2 °F 66% 29.67 in 10.0 mi WNW 15.0 mph 21.9 mph N/A   Clear
10:33 AM 50.0 °F - 39.2 °F 66% 29.67 in 10.0 mi West 16.1 mph 20.7 mph N/A   Clear
10:52 AM 53.6 °F - 39.2 °F 58% 29.67 in 10.0 mi WNW 18.4 mph 25.3 mph N/A   Clear
11:13 AM 55.4 °F - 39.2 °F 54% 29.68 in 10.0 mi WNW 24.2 mph 32.2 mph N/A   Scattered Clouds
11:33 AM 53.6 °F - 37.4 °F 54% 29.69 in 10.0 mi WNW 21.9 mph 33.4 mph N/A   Clear
11:52 AM 53.6 °F - 37.4 °F 54% 29.69 in 10.0 mi WNW 24.2 mph 27.6 mph N/A   Mostly Cloudy
12:13 PM 55.4 °F - 37.4 °F 51% 29.70 in 10.0 mi WNW 25.3 mph 36.8 mph N/A   Overcast
12:33 PM 53.6 °F - 37.4 °F 54% 29.70 in 10.0 mi West 25.3 mph 32.2 mph N/A   Mostly Cloudy
12:52 PM 51.8 °F - 37.4 °F 58% 29.71 in 10.0 mi WNW 24.2 mph 33.4 mph N/A   Overcast
1:13 PM 53.6 °F - 37.4 °F 54% 29.71 in 10.0 mi WNW 23.0 mph 33.4 mph N/A   Overcast
1:33 PM 51.8 °F - 39.2 °F 62% 29.72 in 10.0 mi West 20.7 mph 31.1 mph N/A   Overcast
1:52 PM 51.8 °F - 39.2 °F 62% 29.72 in 10.0 mi WNW 24.2 mph 31.1 mph N/A   Overcast
2:13 PM 50.0 °F - 41.0 °F 71% 29.72 in 10.0 mi WNW 19.6 mph 26.5 mph N/A   Overcast
2:33 PM 51.8 °F - 41.0 °F 67% 29.72 in 10.0 mi WNW 23.0 mph 32.2 mph N/A   Overcast
2:53 PM 50.0 °F - 39.2 °F 66% 29.73 in 10.0 mi NW 16.1 mph 25.3 mph N/A   Overcast
3:13 PM 50.0 °F - 39.2 °F 66% 29.74 in 10.0 mi NW 18.4 mph 26.5 mph N/A   Overcast
3:33 PM 50.0 °F - 39.2 °F 66% 29.75 in 10.0 mi WNW 17.3 mph 25.3 mph N/A   Overcast
3:53 PM 50.0 °F - 39.2 °F 66% 29.76 in 10.0 mi WNW 23.0 mph 29.9 mph N/A   Overcast
4:13 PM 48.2 °F - 37.4 °F 66% 29.77 in 10.0 mi NW 19.6 mph 32.2 mph N/A   Overcast
4:33 PM 46.4 °F 39.5 °F 37.4 °F 71% 29.78 in 10.0 mi NW 17.3 mph 27.6 mph N/A   Overcast
4:53 PM 44.6 °F 37.4 °F 37.4 °F 76% 29.80 in 10.0 mi NNW 16.1 mph 24.2 mph N/A   Overcast
5:13 PM 44.6 °F 37.4 °F 35.6 °F 71% 29.81 in 10.0 mi NNW 16.1 mph 28.8 mph N/A   Overcast
5:33 PM 44.6 °F 36.9 °F 35.6 °F 71% 29.83 in 10.0 mi NNW 18.4 mph 25.3 mph N/A   Overcast
5:53 PM 42.8 °F 35.4 °F 33.8 °F 70% 29.85 in 10.0 mi NNW 15.0 mph 26.5 mph N/A   Overcast
6:13 PM 42.8 °F 34.3 °F 33.8 °F 70% 29.87 in 10.0 mi NNW 19.6 mph 26.5 mph N/A   Overcast
6:33 PM 42.8 °F 35.4 °F 33.8 °F 70% 29.88 in 10.0 mi NNW 15.0 mph 24.2 mph N/A   Overcast
6:53 PM 41.0 °F 32.5 °F 33.8 °F 76% 29.89 in 10.0 mi NNW 17.3 mph 25.3 mph N/A   Overcast
7:12 PM 41.0 °F 33.1 °F 33.8 °F 76% 29.90 in 10.0 mi NNW 15.0 mph 20.7 mph N/A   Overcast
7:33 PM 41.0 °F 34.7 °F 32.0 °F 70% 29.92 in 10.0 mi NNW 10.4 mph 19.6 mph N/A   Overcast
7:52 PM 41.0 °F 34.7 °F 32.0 °F 70% 29.92 in 10.0 mi NNW 10.4 mph - N/A   Overcast
8:13 PM 41.0 °F 35.8 °F 32.0 °F 70% 29.93 in 10.0 mi NNW 8.1 mph - N/A   Overcast
8:33 PM 41.0 °F 33.9 °F 32.0 °F 70% 29.95 in 10.0 mi NNW 12.7 mph 17.3 mph N/A   Overcast
8:53 PM 39.2 °F 33.0 °F 33.8 °F 81% 29.95 in 10.0 mi NW 9.2 mph - N/A   Overcast
9:13 PM 39.2 °F 32.0 °F 33.8 °F 81% 29.96 in 10.0 mi NNW 11.5 mph 16.1 mph N/A   Overcast
9:33 PM 39.2 °F 32.5 °F 33.8 °F 81% 29.97 in 7.0 mi NW 10.4 mph - N/A   Drizzle
9:53 PM 37.4 °F 31.4 °F 33.8 °F 87% 29.97 in 10.0 mi NNW 8.1 mph - N/A   Overcast
10:13 PM 37.4 °F 30.8 °F 33.8 °F 87% 29.97 in 10.0 mi NNW 9.2 mph - N/A   Overcast
10:33 PM 37.4 °F 31.4 °F 33.8 °F 87% 29.98 in 10.0 mi NW 8.1 mph - N/A   Overcast
10:53 PM 37.4 °F 31.4 °F 32.0 °F 81% 29.98 in 10.0 mi NW 8.1 mph - N/A   Overcast
11:13 PM 35.6 °F 29.9 °F 32.0 °F 87% 29.99 in 5.0 mi NNW 6.9 mph - N/A Rain Light Rain
11:33 PM 35.6 °F 30.7 °F 32.0 °F 87% 30.00 in 10.0 mi NNW 5.8 mph - N/A   Overcast
11:53 PM 35.6 °F 31.7 °F 32.0 °F 87% 30.00 in 10.0 mi NNW 4.6 mph - N/A   Scattered Clouds